[[{"header":{"parameterUnit":"m.s-1","parameterCategory":1,"la1":30.2991,"la2":30.254,"lo1":-89.0895,"lo2":-89.0444,"dy":0.0017,"dx":0.0017,"nx":28,"ny":28,"refTime":"2024-07-10T03:00:00:Z","depth":0,"parameterNumber":2,"parameterNumberName":"U-component_of_WINDS"},"data":[0,0,0,0,0,0,0,0,0,0,0,0,0,0,0,0,0,0,0,0,0,0,0,0,0,0,0,0,0,0,0,0,0,0,0,0,0,0,0,0,0,0,0,0,0,0,0,0,0,0,0,0,0,0,0,0,0,0,-0.1469,-0.147,0,-0.1502,-0.1503,-0.1503,-0.1545,-0.1546,-0.1547,-0.1547,-0.1579,-0.1579,-0.1579,0,0,0,0,0,0,0,0,0,0,0,0,0,-0.144,-0.144,-0.1469,-0.147,-0.147,-0.1502,-0.1503,-0.1503,-0.1545,-0.1546,-0.1547,-0.1548,-0.1579,-0.1579,-0.158,0,0,0,0,0,0,0,0,0,0,0,0,0,-0.146,-0.144,-0.1469,-0.1495,-0.1498,-0.1502,-0.1503,-0.1503,-0.1545,-0.1546,-0.1547,-0.1548,-0.1579,-0.1579,-0.158,-0.1561,0,0,-0.158,-0.1581,0,0,0,0,0,0,0,0,-0.1459,-0.1462,-0.1491,-0.1493,-0.1496,-0.1521,-0.1504,-0.1523,-0.1545,-0.1527,-0.1547,-0.1549,-0.1559,-0.1561,-0.1565,-0.1562,-0.1564,-0.1581,-0.1581,-0.1581,-0.1581,0,0,0,0,0,0,0,-0.1458,-0.146,-0.1482,-0.1491,-0.1495,-0.1504,-0.1508,-0.1508,-0.1537,-0.1529,-0.1532,-0.1535,-0.156,-0.1564,-0.1566,-0.1564,-0.1581,-0.1581,-0.1581,-0.1581,-0.1546,-0.1545,0,0,0,0,0,0,-0.1453,-0.1459,-0.1481,-0.1483,-0.148,-0.1504,-0.1508,-0.1512,-0.1537,-0.1542,-0.1534,-0.1537,-0.1563,-0.1565,-0.1567,-0.1545,-0.1581,-0.1581,-0.1581,-0.1547,-0.1546,-0.1544,0,0,0,0,0,0,-0.1452,-0.1454,-0.148,-0.1472,-0.1476,-0.1503,-0.1507,-0.1512,-0.1516,-0.1541,-0.1546,-0.1533,-0.1564,-0.1567,-0.1562,-0.1547,-0.1581,-0.1582,-0.1548,-0.1546,-0.1545,-0.1502,0,0,0,0,0,0,-0.1451,-0.1454,-0.1448,-0.1472,-0.1476,-0.1475,-0.1506,-0.1512,-0.1517,-0.1521,-0.1541,-0.1546,-0.1565,-0.1561,-0.1562,-0.1548,-0.1582,-0.155,-0.1547,-0.1545,-0.1505,-0.1499,-0.1494,0,0,0,0,0,-0.145,-0.1435,-0.1447,-0.145,-0.147,-0.1474,-0.1477,-0.15,-0.1515,-0.1509,-0.1525,-0.1545,-0.1549,-0.156,-0.1562,-0.1547,-0.1551,-0.1548,-0.1546,-0.1508,-0.1501,-0.1495,0,0,0,0,0,0,-0.1408,-0.1438,-0.1453,-0.1445,-0.1457,-0.1481,-0.1474,-0.1492,-0.1499,-0.1503,-0.153,-0.1535,-0.1526,-0.1536,-0.1549,-0.153,-0.1552,-0.155,-0.1523,-0.1517,-0.1511,-0.1508,-0.1582,0,0,0,0,0,-0.1398,-0.1401,-0.1426,-0.1417,-0.1422,-0.1447,-0.145,-0.1467,-0.148,-0.1485,-0.15,-0.1511,-0.1515,-0.1516,-0.1521,-0.1507,-0.1511,-0.1498,-0.1492,-0.1488,-0.1485,-0.1476,-0.147,-0.1536,-0.1536,-0.1536,0,0,-0.1378,-0.1394,-0.1394,-0.1409,-0.142,-0.142,-0.1451,-0.145,-0.145,-0.1484,-0.1481,-0.1492,-0.1506,-0.1496,-0.1492,-0.1504,-0.1468,-0.1485,-0.1481,-0.1481,-0.1473,-0.1467,-0.1461,-0.1534,-0.1535,-0.1535,0,0,-0.134,-0.1354,-0.1346,-0.1357,-0.1373,-0.1389,-0.1387,-0.1409,-0.1418,-0.1415,-0.1439,-0.1439,-0.1445,-0.1454,-0.1459,-0.1422,-0.144,-0.1423,-0.1394,-0.1385,-0.138,-0.1376,-0.1361,-0.1355,-0.142,-0.142,-0.142,0,-0.1312,-0.1315,-0.134,-0.1338,-0.1343,-0.1374,-0.1365,-0.1374,-0.1391,-0.1393,-0.1406,-0.1413,-0.1425,-0.1416,-0.1407,-0.1411,-0.1408,-0.142,-0.1379,-0.1375,-0.1371,-0.1357,-0.1352,-0.1418,-0.1418,-0.1418,-0.1418,0,-0.1278,-0.1279,-0.1272,-0.1287,-0.1291,-0.1286,-0.1309,-0.131,-0.1326,-0.134,-0.1335,-0.135,-0.1358,-0.1357,-0.1373,-0.135,-0.1357,-0.1374,-0.1398,-0.1362,-0.1349,-0.1344,-0.1414,-0.1415,-0.1416,-0.1416,0,0,-0.1216,-0.1245,-0.1241,-0.1248,-0.1267,-0.1268,-0.1263,-0.1271,-0.127,-0.128,-0.1275,-0.1279,-0.1295,-0.13,-0.1317,-0.1309,-0.1277,-0.1328,-0.1328,-0.1316,-0.125,-0.1236,-0.1229,-0.1289,-0.1289,-0.1288,-0.1248,0,-0.1181,-0.1175,-0.1197,-0.1185,-0.1185,-0.1214,-0.1209,-0.122,-0.1233,-0.1234,-0.1248,-0.1249,-0.1271,-0.1274,-0.1268,-0.1282,-0.1264,-0.1285,-0.1284,-0.1283,-0.1278,-0.1223,-0.1209,-0.1171,-0.1244,-0.1243,-0.1242,0,-0.114,-0.1147,-0.1135,-0.1153,-0.1154,-0.115,-0.1157,-0.1159,-0.117,-0.118,-0.1185,-0.1205,-0.12,-0.1222,-0.1215,-0.1229,-0.123,-0.1236,-0.1235,-0.1235,-0.126,-0.122,-0.1159,-0.1153,-0.1235,-0.1236,-0.1236,0,-0.1093,-0.11,-0.1094,-0.1098,-0.112,-0.1116,-0.1125,-0.1138,-0.114,-0.1146,-0.1148,-0.1153,-0.1156,-0.1159,-0.1178,-0.1193,-0.1167,-0.1192,-0.1174,-0.1173,-0.1166,-0.1166,-0.1103,-0.1169,-0.1169,-0.1169,-0.1169,0,-0.1051,-0.1042,-0.1073,-0.1068,-0.1058,-0.1083,-0.1072,-0.1084,-0.1095,-0.1092,-0.1117,-0.1114,-0.114,-0.1139,-0.1154,-0.1144,-0.1146,-0.1152,-0.1156,-0.1149,-0.1148,-0.1149,-0.1152,-0.1168,-0.1168,-0.1168,-0.1168,0,-0.0998,-0.1018,-0.1012,-0.1033,-0.1038,-0.1029,-0.1046,-0.1042,-0.1056,-0.1052,-0.1053,-0.1074,-0.1074,-0.1094,-0.1098,-0.1108,-0.1091,-0.1101,-0.1087,-0.109,-0.1069,-0.107,-0.1004,-0.0995,-0.1067,-0.1067,-0.1066,0,-0.0969,-0.0963,-0.0982,-0.0982,-0.0989,-0.099,-0.0992,-0.1015,-0.1017,-0.1028,-0.1022,-0.1024,-0.1027,-0.1026,-0.1041,-0.1044,-0.1052,-0.1029,-0.1053,-0.1045,-0.105,-0.1049,-0.1048,-0.1023,-0.1022,-0.1022,-0.1021,0,-0.0915,-0.0925,-0.0928,-0.0933,-0.0935,-0.0941,-0.0948,-0.0946,-0.0972,-0.0972,-0.0972,-0.0974,-0.0978,-0.0979,-0.0984,-0.0992,-0.1009,-0.1013,-0.1009,-0.1001,-0.0993,-0.0995,-0.1072,-0.1015,-0.1015,-0.1016,-0.1016,-0.1016,-0.0872,-0.0867,-0.0879,-0.0881,-0.0889,-0.0894,-0.0891,-0.0904,-0.0905,-0.091,-0.0924,-0.0921,-0.0931,-0.094,-0.0946,-0.0943,-0.0954,-0.0948,-0.0947,-0.0944,-0.094,-0.0994,-0.0944,-0.0944,-0.0945,-0.0945,-0.0945,0,-0.0818,-0.0827,-0.0828,-0.0837,-0.0838,-0.0856,-0.0864,-0.0863,-0.086,-0.0868,-0.087,-0.0869,-0.087,-0.0885,-0.0887,-0.0882,-0.089,-0.0881,-0.0881,-0.0882,-0.093,-0.0933,-0.0874,-0.0874,-0.0874,-0.0874,-0.0874,-0.0874,-0.079,-0.0782,-0.0793,-0.0787,-0.0796,-0.0794,-0.0797,-0.0802,-0.0808,-0.0806,-0.0807,-0.0816,-0.0827,-0.0829,-0.083,-0.0834,-0.0833,-0.0821,-0.0828,-0.0872,-0.0879,-0.0885,-0.0888,-0.0821,-0.0821,-0.0779,-0.0779,-0.0779]},{"header":{"parameterUnit":"m.s-1","parameterCategory":1,"la1":30.2991,"la2":30.254,"lo1":-89.0895,"lo2":-89.0444,"dy":0.0017,"dx":0.0017,"nx":28,"ny":28,"refTime":"2024-07-10T03:00:00:Z","depth":0,"parameterNumber":3,"parameterNumberName":"V-component_of_WINDS"},"data":[0,0,0,0,0,0,0,0,0,0,0,0,0,0,0,0,0,0,0,0,0,0,0,0,0,0,0,0,0,0,0,0,0,0,0,0,0,0,0,0,0,0,0,0,0,0,0,0,0,0,0,0,0,0,0,0,0,0,0.9725,0.9724,0,0.969,0.9689,0.9689,0.9714,0.9715,0.9716,0.9717,0.9677,0.9675,0.9673,0,0,0,0,0,0,0,0,0,0,0,0,0,0.9811,0.9809,0.9725,0.9724,0.9724,0.969,0.9689,0.9689,0.9713,0.9715,0.9716,0.9717,0.9678,0.9675,0.9673,0,0,0,0,0,0,0,0,0,0,0,0,0,0.9774,0.9809,0.9725,0.9732,0.9733,0.969,0.9689,0.9688,0.9713,0.9715,0.9717,0.9718,0.9679,0.9675,0.9672,0.9619,0,0,0.9663,0.9661,0,0,0,0,0,0,0,0,0.9776,0.9771,0.9732,0.9732,0.9732,0.9708,0.9705,0.9665,0.9713,0.972,0.9717,0.9719,0.9686,0.9682,0.9672,0.9617,0.9615,0.9662,0.966,0.9659,0.9658,0,0,0,0,0,0,0,0.9779,0.9773,0.9711,0.9731,0.9731,0.9736,0.9733,0.9697,0.9694,0.972,0.9722,0.9717,0.9686,0.9675,0.9671,0.9615,0.9662,0.966,0.9658,0.9656,0.9516,0.9514,0,0,0,0,0,0,0.9781,0.9775,0.9712,0.971,0.9759,0.9734,0.973,0.9714,0.9694,0.9693,0.9716,0.9719,0.9679,0.9674,0.9669,0.9606,0.9659,0.9656,0.9654,0.9517,0.9515,0.9513,0,0,0,0,0,0,0.9783,0.9775,0.9713,0.9743,0.9735,0.973,0.9712,0.9712,0.9701,0.9691,0.9691,0.9705,0.968,0.9674,0.9632,0.9605,0.9655,0.9652,0.952,0.9517,0.9514,0.9479,0,0,0,0,0,0,0.9785,0.9776,0.9756,0.9742,0.9734,0.9677,0.971,0.971,0.9696,0.9699,0.9681,0.968,0.9681,0.9636,0.9629,0.9602,0.9649,0.9522,0.9518,0.9515,0.9483,0.9476,0.947,0,0,0,0,0,0.9788,0.9747,0.9755,0.9747,0.9709,0.9675,0.967,0.9674,0.9693,0.9673,0.9667,0.968,0.961,0.9632,0.9623,0.9595,0.9524,0.9519,0.9515,0.9486,0.9477,0.947,0,0,0,0,0,0,0.9756,0.9745,0.9754,0.9707,0.9692,0.968,0.9654,0.9665,0.9643,0.9647,0.9651,0.9647,0.9603,0.9595,0.962,0.9543,0.957,0.9563,0.955,0.9542,0.9535,0.9538,0.9647,0,0,0,0,0,0.9744,0.9718,0.971,0.9669,0.9661,0.9659,0.9644,0.9649,0.9633,0.9627,0.9618,0.9601,0.9575,0.9558,0.9533,0.9482,0.9478,0.9458,0.9452,0.9446,0.9441,0.9413,0.9404,0.95,0.95,0.95,0,0,0.9717,0.9708,0.9692,0.9662,0.9651,0.9624,0.9653,0.9623,0.9603,0.9622,0.9582,0.9575,0.9556,0.9509,0.9488,0.9501,0.9414,0.9441,0.9437,0.9434,0.9408,0.9399,0.9391,0.9497,0.9497,0.9498,0,0,0.9656,0.9646,0.9612,0.9601,0.9584,0.9583,0.9575,0.9561,0.9558,0.9518,0.9532,0.9507,0.9463,0.9449,0.9437,0.9371,0.9382,0.9363,0.9329,0.9302,0.9294,0.9288,0.9264,0.9256,0.9358,0.9358,0.9358,0,0.9625,0.9586,0.9592,0.9562,0.9548,0.9565,0.953,0.9518,0.9494,0.9484,0.95,0.9445,0.9433,0.9384,0.9368,0.9357,0.9348,0.9365,0.9295,0.9288,0.9282,0.926,0.9252,0.9356,0.9356,0.9356,0.9356,0,0.9548,0.9521,0.9495,0.9473,0.9457,0.9424,0.9425,0.9407,0.9413,0.941,0.937,0.9357,0.9331,0.932,0.9324,0.9271,0.928,0.9295,0.9322,0.9271,0.925,0.9242,0.9352,0.9353,0.9354,0.9354,0,0,0.9465,0.9448,0.9438,0.9429,0.9413,0.9391,0.9359,0.9335,0.932,0.9303,0.9276,0.9238,0.9253,0.9238,0.9242,0.9218,0.9168,0.9236,0.9236,0.9224,0.9108,0.9097,0.9087,0.9175,0.9174,0.9172,0.911,0,0.9402,0.9348,0.9353,0.9301,0.9276,0.9292,0.9264,0.9251,0.9247,0.9225,0.9221,0.9194,0.9215,0.9207,0.9184,0.9179,0.9145,0.9183,0.9149,0.9148,0.9153,0.9076,0.9064,0.9006,0.9102,0.91,0.9099,0,0.9322,0.9304,0.925,0.9239,0.9228,0.9203,0.9182,0.916,0.9145,0.9145,0.9129,0.9137,0.9104,0.9132,0.9087,0.9113,0.91,0.9095,0.9093,0.9089,0.9121,0.9071,0.8987,0.8978,0.9087,0.9088,0.9089,0,0.9267,0.9229,0.9192,0.9183,0.9169,0.9151,0.9144,0.9131,0.9116,0.9097,0.9088,0.9065,0.9052,0.9034,0.9035,0.9055,0.8989,0.9017,0.8987,0.8987,0.8971,0.8972,0.8884,0.8963,0.8963,0.8963,0.8963,0,0.9197,0.9163,0.9167,0.9144,0.9106,0.9113,0.9075,0.907,0.9059,0.9034,0.9047,0.9024,0.9027,0.9003,0.9004,0.8966,0.896,0.8958,0.8959,0.8957,0.8957,0.8948,0.8952,0.8961,0.8961,0.8962,0.8962,0,0.9128,0.913,0.909,0.9081,0.9078,0.905,0.9042,0.902,0.9018,0.8987,0.898,0.8977,0.895,0.895,0.8919,0.8919,0.8873,0.8878,0.8879,0.888,0.885,0.8852,0.8752,0.8739,0.8827,0.8826,0.8825,0,0.9083,0.9058,0.9046,0.9032,0.9024,0.9,0.8986,0.8991,0.8976,0.8957,0.8937,0.8912,0.8892,0.8848,0.8843,0.8819,0.8824,0.879,0.882,0.8819,0.8823,0.8825,0.8822,0.8784,0.8783,0.8782,0.8782,0,0.9004,0.9006,0.8986,0.8966,0.8949,0.8933,0.8918,0.8905,0.8909,0.889,0.8864,0.8849,0.8818,0.8792,0.877,0.8762,0.8772,0.8773,0.8764,0.8762,0.8763,0.8762,0.8863,0.8775,0.8775,0.8776,0.8776,0.8777,0.8946,0.8924,0.8913,0.889,0.888,0.8866,0.8845,0.8842,0.882,0.8796,0.8801,0.8771,0.8757,0.8728,0.8718,0.8695,0.8706,0.8694,0.8691,0.8688,0.8685,0.8768,0.8691,0.8691,0.8691,0.8691,0.8691,0,0.8866,0.886,0.8839,0.8819,0.8801,0.8814,0.8799,0.8783,0.8757,0.8744,0.8725,0.8694,0.867,0.8663,0.8639,0.8622,0.8626,0.8615,0.8617,0.8615,0.8676,0.8685,0.8613,0.8613,0.8613,0.8613,0.8613,0.8613,0.8823,0.8788,0.8789,0.8748,0.8742,0.8715,0.8705,0.8692,0.8682,0.8648,0.8628,0.8625,0.8614,0.859,0.8568,0.8567,0.8557,0.8545,0.8545,0.8602,0.861,0.8618,0.8627,0.8543,0.8542,0.8485,0.8485,0.8485]}]]